Weather in Zarechye

Russia / Kaliningrad Oblast     54°47′16″N   20°53′03″E
temp.,
°C
wind,
m/s
gust,
m/s
humid.,
%
clouds,
%
prec.,
mm/h
press.,
hPa
HPBL,
m
19 may, wed
wed1923:00+7wnw389427 0.0 1007165
02:00+7wnw399558 0.0 1007181
05:00+8wnw399157 0.0 1007239
08:00+12wnw4775100 0.0 1008587
11:00+14wnw5771100 0.1 10081026
14:00+15nw6865100 0.1 1008893
17:00+13nw5875100 0.3 1010529
20:00+10wnw4885100 0.3 1010284
20 may, thu
thu2023:00+8w3787100 0.0 1011185
02:00+8w398994 0.2 1011247
05:00+6wsw410955 0.0 1012225
08:00+12wnw69734 0.0 1013574
11:00+14wnw67611 0.0 10141194
14:00+15wnw686129 0.1 10141651
17:00+13nw68684 0.1 10141074
20:00+9w48813 0.1 1015352
21 may, fri
fri2123:00+5wsw310900 0.0 1015239
02:00+6wsw412915 0.0 1014325
05:00+5sw411911 0.0 1014278
08:00+10wsw597471 0.0 1014620
11:00+14sw5861100 0.0 10141610
14:00+16sw695798 0.8 10121793
17:00+16sw51066100 0.6 10111543
20:00+13s51274100 0.9 1010372
22 may, sat
sat2223:00+10s3994100 1.1 1010408
02:00+10sse61295100 1.4 1008534
05:00+10ssw4996100 0.1 1007435
08:00+12ssw51092100 0.1 1008620
11:00+12s5992100 0.4 1008593
14:00+12s5994100 1.3 1008511
17:00+12s4894100 0.5 1007424
20:00+12s4794100 1.0 1006282
23 may, sun
sun2323:00+10s2397100 0.4 100686
02:00+9ssw3896100 0.4 1005199
05:00+8wsw3798100 0.0 1006177
08:00+11w5788100 0.0 1007692
11:00+11w5992100 0.7 1008767
14:00+10w71188100 1.3 1009858
17:00+12wnw812735 0.5 10101346
20:00+9w714680 0.5 1011803